416  
ASUS44 KMAF 231101  
RWRMAF  
MIDLAND AREA WEATHER ROUNDUP  
NATIONAL WEATHER SERVICE MIDLAND TX  
600 AM CDT SAT OCT 23 2021  
   
..IN SOUTHWEST TEXAS AND SOUTHEAST NEW MEXICO
 
 
 
CITY SKY/WX TMP DP RH WIND PRES REMARKS
 
ALPINE CLOUDY 66 55 68 SW10 30.04S  
ANDREWS FAIR 64 59 83 S14 29.91S  
ARTESIA MOCLDY 59 45 58 S6 29.91S  
BIG SPRING CLOUDY 66 60 82 S15 29.90S  
CARLSBAD PTCLDY 63 50 62 MISG 29.87S  
DRYDEN N/A 63 59 87 N7 29.91F  
FORT STOCKTON NOT AVBL  
GUAD PASS PTCLDY 63 49 60 W10 30.02S  
HOBBS NOT AVBL  
LAMESA NOT AVBL  
MARFA CLOUDY 54 50 86 N3 30.04S  
MIDLAND AIRPK CLEAR 66 60 82 S12 29.90S  
MIDLAND INTL CLEAR 65 61 87 S14 29.90S  
ODESSA PTCLDY 63 59 87 S13 29.91S  
PECOS CLEAR 64 57 78 E3 29.86S  
PRESIDIO FAIR 70 60 69 NE3 29.93S  
SEMINOLE CLEAR 64 60 85 S10 29.95S  
SNYDER CLOUDY 62 61 97 S8 29.91S  
WINK CLEAR 65 60 84 SE14 29.87S  

   
..OTHER STATIONS IN TEXAS
 
 
 
CITY SKY/WX TMP DP RH WIND PRES REMARKS
 
ABILENE CLEAR 68 60 75 S12G23 29.88F  
AMARILLO PTCLDY 59 55 87 S14 29.85S  
AUSTIN CLOUDY 72 70 93 S6 29.92S  
BROWNSVILLE MOCLDY 71 68 90 N6 29.88S  
CORPUS CHRISTI CLOUDY 74 71 91 NW3 29.90R  
DALLAS FTW CLEAR 68 64 87 S10 29.88S  
DEL RIO CLEAR 70 65 84 E10 29.88S  
EL PASO PTCLDY 61 38 42 E5 29.91S  
HOUSTON INT PTCLDY 70 68 93 CALM 29.92F FOG  
LUBBOCK PTCLDY 64 57 78 S16G28 29.89S  
SAN ANGELO CLEAR 65 61 87 S6 29.89F  
SAN ANTONIO CLOUDY 69 68 96 E3 29.92F  
WACO PTCLDY 71 68 90 S9 29.91F  
WICHITA FALLS MOCLDY 58 55 90 SE9 29.78S  

   
..OTHER LOCATIONS IN NEW MEXICO
 
 
 
CITY SKY/WX TMP DP RH WIND PRES REMARKS
 
ALAMOGORDO PTCLDY 52 39 62 VRB6 29.93S  
ALBUQUERQUE PTCLDY 49 29 46 CALM 30.00R  
CANNON AFB PTCLDY 56 49 74 W7 29.91S  
CLOVIS PTCLDY 53 47 79 W6 29.92S  
HOLLOMAN AFB NOT AVBL  
ROSWELL PTCLDY 56 42 59 SW6 29.89S  
RUIDOSO MOCLDY 54 37 54 S3 30.08S  
SANTA FE PTCLDY 43 16 33 N8 30.01F WCI 38  
TRUTH OR CONSE CLEAR 57 31 37 W12 29.95F  
TUCUMCARI PTCLDY 54 39 57 SW8 29.85S  

 
 
 
CLICK HERE TO GO TO PREVIOUS BULLETINS.

The Nexlab TX Page
The Nexlab NM Page Main Text Page